"Pseudo-MPEC" for P11dgtF
Created 2021 Feb 28 15:07:06 UT using Find_Orb
Click here for an explanation of pseudo-MPECs
Astrometry: P11dgtF C2021 02 12Zp,EotGhVSDJ*_QLm@aOl7M\@6a1_jE/PkXJ
AstrometrylFZyk^
F51 P11dgtF C2021 02 12]*i/w/qL!by7(jR^U7N$EY)7%=7JVtTE^+/
redacted;UXd=1E!T
F51 P11dgtF C2021 02 12]0Fe1FC0YLH_D9cTgyK#bZ[MwG
clickOv]
here33]xx^B.=H0VlI
F51 P11dgtF C2021 02 16@Fk8oQQiNRr%T08AG7?+3(#[83(-(-E(#;yTFh]R;b`KT(rE!XX]
F51 P11dgtF C2021 02 16[nvnvl$S!aVp`ep(CcnrEArFy*^ZxZ(t^SY::i0T.[\0]ZNNGEos
F51 P11dgtF C2021 02 16FH#*\?PD#)W=wF(QU=heTH:UP;4FH7
forP+mn$
explanationDl'
F51 Station data: (F51) Pan-STARRS 1, Haleakala (N20.707235 W156.255910) US/Hawaii. Observers N. Primak, A. Schultz, S. Watters, J. Thiel, T. Goggia. Measurer PS1 Science Consortium. 1.8-m Ritchey-Chrétien + CCD. Orbital elements: P11dgtF Perihelion 2020 Feb 14.363903 +/- 261.592 TT = 8:44:01 (JD 2458893.863903) Epoch 2021 Feb 16.0 TT = JDT 2459261.5 Earth MOID: 0.7790 AutoNEOCP M 144.97491017 +/- 119.83099 (J2000 ecliptic) n 0.39434351 +/- 0.136485 Peri. 252.15904 +/- 65.494014 a 1.84170294 +/- 0.424942 Node 97.79376 +/- 14.385111 e 0.0546034 +/- 0.224078 Incl. 23.45808 +/- 12.267911 P 2.50/912.89d H 20.2 G 0.15 U 11.4 SR q 1.74113956 +/- 0.230894 Q 1.94226632 +/- 3.28715 From 6 observations 2021 Feb. 12-16; mean residual 0".10
Residuals in arcseconds: 210212 F51 .03+ .16- 210212 F51 .02- .18+ 210216 F51 .11+ .03+ 210212 F51 .01- .03- 210216 F51 .15- .08+ 210216 F51 .05+ .12- Ephemerides (geocentric): Date (UTC) HH RA Dec delta r elong mag " sig PA ---- -- -- -- ------------- ----------- ------ ------ ----- --- ---- --- 2021 02 28 15 08 47 05.809 +48 13 42.75 1.1177 1.9300 132.4 22.9 866 49 2021 02 28 16 08 47 03.658 +48 13 49.56 1.1180 1.9300 132.4 22.9 870 49 2021 02 28 17 08 47 01.513 +48 13 56.32 1.1183 1.9301 132.4 22.9 875 49 2021 02 28 18 08 46 59.372 +48 14 03.02 1.1186 1.9301 132.3 22.9 880 49 2021 02 28 19 08 46 57.237 +48 14 09.68 1.1189 1.9301 132.3 22.9 885 49 2021 02 28 20 08 46 55.107 +48 14 16.28 1.1192 1.9301 132.3 22.9 890 49 2021 02 28 21 08 46 52.981 +48 14 22.83 1.1195 1.9301 132.2 22.9 895 49 2021 02 28 22 08 46 50.861 +48 14 29.33 1.1198 1.9301 132.2 22.9 900 49 2021 02 28 23 08 46 48.746 +48 14 35.78 1.1201 1.9301 132.1 22.9 904 49 2021 03 01 00 08 46 46.636 +48 14 42.17 1.1204 1.9302 132.1 22.9 909 49 2021 03 01 01 08 46 44.531 +48 14 48.52 1.1207 1.9302 132.1 22.9 914 49 2021 03 01 02 08 46 42.431 +48 14 54.81 1.1210 1.9302 132.0 22.9 919 49 2021 03 01 03 08 46 40.336 +48 15 01.06 1.1213 1.9302 132.0 22.9 924 49 2021 03 01 04 08 46 38.246 +48 15 07.25 1.1216 1.9302 132.0 22.9 929 49 2021 03 01 05 08 46 36.162 +48 15 13.39 1.1219 1.9302 131.9 22.9 934 49 2021 03 01 06 08 46 34.082 +48 15 19.47 1.1222 1.9302 131.9 22.9 939 49 2021 03 01 07 08 46 32.008 +48 15 25.51 1.1225 1.9302 131.9 22.9 944 49 2021 03 01 08 08 46 29.939 +48 15 31.50 1.1228 1.9303 131.8 22.9 949 49 2021 03 01 09 08 46 27.875 +48 15 37.43 1.1231 1.9303 131.8 22.9 954 49 2021 03 01 10 08 46 25.816 +48 15 43.32 1.1234 1.9303 131.7 22.9 959 49 2021 03 01 11 08 46 23.762 +48 15 49.15 1.1237 1.9303 131.7 22.9 964 49 2021 03 01 12 08 46 21.713 +48 15 54.93 1.1240 1.9303 131.7 22.9 969 49 2021 03 01 13 08 46 19.670 +48 16 00.67 1.1243 1.9303 131.6 22.9 974 49 2021 03 01 14 08 46 17.631 +48 16 06.35 1.1246 1.9303 131.6 22.9 979 49 2021 03 01 15 08 46 15.598 +48 16 11.98 1.1249 1.9303 131.6 22.9 984 49 2021 03 01 16 08 46 13.570 +48 16 17.56 1.1252 1.9304 131.5 22.9 990 49 2021 03 01 17 08 46 11.547 +48 16 23.09 1.1255 1.9304 131.5 22.9 995 49 2021 03 01 18 08 46 09.529 +48 16 28.57 1.1258 1.9304 131.4 22.9 1000 49 2021 03 01 19 08 46 07.516 +48 16 34.00 1.1261 1.9304 131.4 23.0 1005 49 2021 03 01 20 08 46 05.509 +48 16 39.38 1.1265 1.9304 131.4 23.0 1010 49 2021 03 01 21 08 46 03.506 +48 16 44.70 1.1268 1.9304 131.3 23.0 1015 49 2021 03 01 22 08 46 01.509 +48 16 49.98 1.1271 1.9304 131.3 23.0 1020 49 2021 03 01 23 08 45 59.517 +48 16 55.21 1.1274 1.9305 131.3 23.0 1025 49 2021 03 02 00 08 45 57.530 +48 17 00.39 1.1277 1.9305 131.2 23.0 1031 49 2021 03 02 01 08 45 55.549 +48 17 05.51 1.1280 1.9305 131.2 23.0 1036 49 2021 03 02 02 08 45 53.572 +48 17 10.59 1.1283 1.9305 131.2 23.0 1041 49 2021 03 02 03 08 45 51.601 +48 17 15.62 1.1286 1.9305 131.1 23.0 1046 49 2021 03 02 04 08 45 49.635 +48 17 20.60 1.1289 1.9305 131.1 23.0 1052 49 2021 03 02 05 08 45 47.674 +48 17 25.52 1.1292 1.9305 131.0 23.0 1057 49 2021 03 02 06 08 45 45.719 +48 17 30.40 1.1295 1.9305 131.0 23.0 1062 49 2021 03 02 07 08 45 43.768 +48 17 35.23 1.1298 1.9306 131.0 23.0 1067 49 2021 03 02 08 08 45 41.823 +48 17 40.01 1.1301 1.9306 130.9 23.0 1073 49 2021 03 02 09 08 45 39.883 +48 17 44.74 1.1304 1.9306 130.9 23.0 1078 49 2021 03 02 10 08 45 37.948 +48 17 49.42 1.1307 1.9306 130.9 23.0 1083 49 2021 03 02 11 08 45 36.018 +48 17 54.05 1.1311 1.9306 130.8 23.0 1088 49 2021 03 02 12 08 45 34.094 +48 17 58.63 1.1314 1.9306 130.8 23.0 1094 49 2021 03 02 13 08 45 32.175 +48 18 03.16 1.1317 1.9306 130.7 23.0 1099 49 2021 03 02 14 08 45 30.261 +48 18 07.64 1.1320 1.9306 130.7 23.0 1104 49